QPF
0.00 0.00 0.00 0.00 0.00 0.00 0.00 0.00 0.00 0.00 0.00 0.00 0.00 0.00 0.00 0.00 0.00 0.00 0.00 0.00 0.00 0.00 0.00 0.00 0.00 0.00 0.00 0.00 0.00 0.00 0.00 0.00 0.00 0.00 0.00 0.00 0.00 0.00 0.01 0.16 0.05 0.12 0.05 0.04 0.05 0.07 0.06 0.04 0.03 0.13 0.01 0.00 0.00 0.00 0.00 0.00 0.00 0.00 0.00 0.00 0.00 0.00 0.00
0.00 0.00 0.00 0.00 0.00 0.00 0.00 0.00 0.00 0.00 0.00 0.00 0.00 0.00 0.00 0.00 0.00 0.00 0.00 0.00 0.00 0.00 0.00 0.00 0.00 0.00 0.00 0.00 0.00 0.00 0.00 0.00 0.00 0.00 0.00 0.00 0.00 0.00 0.00 0.00 0.02 0.01 0.10 0.09 0.07 0.02 0.02 0.02 0.01 0.01 0.02 0.03 0.01 0.01 0.01 0.00 0.01 0.00 0.00 0.00 0.00 0.00 0.00
0.00 0.00 0.00 0.00 0.00 0.00 0.00 0.00 0.00 0.00 0.00 0.00 0.00 0.00 0.00 0.00 0.00 0.00 0.00 0.00 0.00 0.00 0.00 0.00 0.00 0.00 0.00 0.00 0.00 0.00 0.00 0.00 0.00 0.00 0.00 0.00 0.00 0.00 0.00 0.00 0.00 0.00 0.00 0.00 0.00 0.01 0.01 0.01 0.01 0.00 0.00 0.00 0.00 0.01 0.00 0.00 0.00 0.00 0.00 0.00 0.00 0.00 0.00
0.00 0.00 0.00 0.00 0.00 0.00 0.00 0.00 0.00 0.00 0.00 0.00 0.00 0.00 0.00 0.00 0.00 0.00 0.00 0.00 0.00 0.00 0.00 0.00 0.00 0.00 0.00 0.00 0.00 0.00 0.00 0.00 0.00 0.00 0.00 0.00 0.00 0.00 0.00 0.00 0.00 0.00 0.00 0.00 0.00 0.00 0.01 0.01 0.02 0.01 0.01 0.00 0.00 0.00 0.00 0.00 0.00 0.00 0.00 0.00 0.00 0.00 0.00
0.00 0.00 0.00 0.00 0.00 0.00 0.00 0.00 0.00 0.00 0.00 0.00 0.00 0.00 0.00 0.00 0.00 0.00 0.00 0.00 0.00 0.00 0.00 0.00 0.00 0.00 0.00 0.00 0.00 0.00 0.00 0.00 0.00 0.00 0.00 0.00 0.00 0.00 0.00 0.00 0.00 0.00 0.00 0.00 0.00 0.00 0.00 0.00 0.01 0.01 0.00 0.00 0.00 0.00 0.00 0.00 0.00 0.00 0.00 0.00 0.00 0.00 0.00
0.00 0.00 0.00 0.00 0.00 0.00 0.00 0.00 0.00 0.00 0.00 0.00 0.00 0.00 0.00 0.00 0.00 0.00 0.00 0.00 0.00 0.00 0.00 0.00 0.00 0.00 0.00 0.00 0.00 0.00 0.00 0.00 0.00 0.00 0.00 0.00 0.00 0.00 0.00 0.00 0.00 0.00 0.00 0.00 0.00 0.00 0.00 0.00 0.00 0.00 0.00 0.00 0.01 0.00 0.00 0.00 0.00 0.00 0.00 0.00 0.00 0.00 0.00
0.00 0.00 0.00 0.00 0.00 0.00 0.00 0.00 0.00 0.00 0.00 0.00 0.00 0.00 0.00 0.00 0.00 0.00 0.00 0.00 0.00 0.00 0.00 0.00 0.00 0.00 0.00 0.00 0.00 0.00 0.00 0.00 0.00 0.00 0.00 0.00 0.00 0.00 0.00 0.00 0.00 0.00 0.00 0.00 0.00 0.00 0.00 0.00 0.00 0.00 0.00 0.00 0.00 0.00 0.00 0.00 0.00 0.00 0.00 0.00 0.00 0.00 0.00
0.00 0.00 0.00 0.00 0.00 0.00 0.00 0.00 0.00 0.00 0.00 0.00 0.00 0.00 0.00 0.00 0.00 0.00 0.00 0.00 0.00 0.00 0.00 0.00 0.00 0.00 0.00 0.00 0.00 0.00 0.00 0.00 0.00 0.00 0.00 0.00 0.00 0.00 0.00 0.00 0.00 0.00 0.00 0.00 0.00 0.00 0.00 0.00 0.00 0.00 0.01 0.00 0.00 0.00 0.00 0.00 0.00 0.00 0.00 0.00 0.00 0.00 0.00
0.00 0.00 0.00 0.00 0.00 0.00 0.00 0.00 0.00 0.00 0.00 0.00 0.00 0.00 0.00 0.00 0.00 0.00 0.00 0.00 0.00 0.00 0.00 0.00 0.00 0.00 0.00 0.00 0.00 0.00 0.00 0.00 0.00 0.00 0.00 0.00 0.00 0.00 0.00 0.00 0.00 0.00 0.00 0.00 0.00 0.00 0.00 0.00 0.00 0.00 0.01 0.01 0.01 0.00 0.00 0.00 0.00 0.00 0.00 0.00 0.00 0.00 0.00
0.00 0.00 0.00 0.00 0.00 0.00 0.00 0.00 0.00 0.00 0.00 0.00 0.00 0.00 0.00 0.00 0.00 0.00 0.00 0.00 0.00 0.00 0.00 0.00 0.00 0.00 0.00 0.00 0.00 0.00 0.00 0.00 0.00 0.00 0.00 0.00 0.00 0.00 0.00 0.00 0.00 0.00 0.00 0.00 0.00 0.00 0.00 0.00 0.00 0.00 0.00 0.01 0.01 0.01 0.01 0.00 0.00 0.00 0.00 0.00 0.00 0.00 0.00
0.00 0.00 0.00 0.00 0.00 0.00 0.00 0.00 0.00 0.00 0.00 0.00 0.00 0.00 0.00 0.00 0.00 0.00 0.00 0.00 0.00 0.00 0.00 0.00 0.00 0.00 0.00 0.00 0.00 0.00 0.00 0.00 0.00 0.00 0.00 0.00 0.00 0.00 0.00 0.00 0.00 0.00 0.00 0.00 0.00 0.00 0.00 0.00 0.00 0.00 0.00 0.00 0.00 0.01 0.01 0.01 0.00 0.00 0.00 0.00 0.00 0.00 0.00
0.00 0.00 0.00 0.00 0.00 0.00 0.00 0.00 0.00 0.00 0.00 0.00 0.00 0.00 0.00 0.00 0.00 0.00 0.00 0.00 0.00 0.00 0.00 0.00 0.00 0.00 0.00 0.00 0.00 0.00 0.00 0.00 0.00 0.00 0.00 0.00 0.00 0.00 0.00 0.00 0.00 0.00 0.00 0.00 0.00 0.00 0.00 0.00 0.00 0.00 0.00 0.00 0.00 0.00 0.00 0.01 0.01 0.00 0.00 0.00 0.00 0.00 0.00
0.00 0.00 0.00 0.00 0.00 0.00 0.00 0.00 0.00 0.00 0.00 0.00 0.00 0.00 0.00 0.00 0.00 0.00 0.00 0.00 0.00 0.00 0.00 0.00 0.00 0.00 0.00 0.00 0.00 0.00 0.00 0.00 0.00 0.00 0.00 0.00 0.00 0.00 0.00 0.00 0.00 0.00 0.00 0.00 0.00 0.00 0.00 0.00 0.00 0.00 0.00 0.00 0.00 0.00 0.00 0.00 0.01 0.00 0.00 0.00 0.00 0.00 0.00
0.00 0.00 0.00 0.00 0.00 0.00 0.00 0.00 0.00 0.00 0.00 0.00 0.00 0.00 0.00 0.00 0.00 0.00 0.00 0.00 0.00 0.00 0.00 0.00 0.00 0.00 0.00 0.00 0.00 0.00 0.00 0.00 0.00 0.00 0.00 0.00 0.00 0.00 0.00 0.00 0.00 0.00 0.00 0.00 0.00 0.00 0.00 0.00 0.00 0.00 0.00 0.00 0.00 0.00 0.00 0.00 0.00 0.00 0.00 0.00 0.00 0.00 0.00
0.00 0.00 0.00 0.00 0.00 0.00 0.00 0.00 0.00 0.00 0.00 0.00 0.00 0.00 0.00 0.00 0.00 0.00 0.00 0.00 0.00 0.00 0.00 0.00 0.00 0.00 0.00 0.00 0.00 0.00 0.00 0.00 0.00 0.00 0.00 0.00 0.00 0.00 0.00 0.00 0.00 0.00 0.00 0.00 0.00 0.00 0.00 0.00 0.00 0.00 0.00 0.00 0.00 0.00 0.00 0.00 0.00 0.00 0.00 0.00 0.00 0.00 0.00
0.00 0.00 0.00 0.00 0.00 0.00 0.00 0.00 0.00 0.00 0.00 0.00 0.00 0.00 0.00 0.00 0.00 0.00 0.00 0.00 0.00 0.00 0.00 0.00 0.00 0.00 0.00 0.00 0.00 0.00 0.00 0.00 0.00 0.00 0.00 0.00 0.00 0.00 0.00 0.00 0.00 0.00 0.00 0.00 0.00 0.00 0.00 0.00 0.00 0.00 0.00 0.00 0.00 0.00 0.00 0.00 0.00 0.00 0.00 0.00 0.00 0.00 0.00
0.00 0.00 0.00 0.00 0.00 0.00 0.00 0.00 0.00 0.00 0.00 0.00 0.00 0.00 0.00 0.00 0.00 0.00 0.00 0.00 0.00 0.00 0.00 0.00 0.00 0.00 0.00 0.00 0.00 0.00 0.00 0.00 0.00 0.00 0.00 0.00 0.00 0.00 0.00 0.00 0.00 0.00 0.00 0.00 0.00 0.00 0.00 0.00 0.00 0.00 0.00 0.00 0.00 0.00 0.00 0.00 0.00 0.00 0.00 0.00 0.00 0.00 0.00
0.00 0.00 0.00 0.00 0.00 0.00 0.00 0.00 0.00 0.00 0.00 0.00 0.00 0.00 0.00 0.00 0.00 0.00 0.00 0.00 0.00 0.00 0.00 0.00 0.00 0.00 0.00 0.00 0.00 0.00 0.00 0.00 0.00 0.00 0.00 0.00 0.00 0.00 0.00 0.00 0.00 0.00 0.00 0.00 0.00 0.00 0.00 0.00 0.00 0.00 0.00 0.00 0.00 0.00 0.00 0.00 0.00 0.00 0.00 0.00 0.00 0.00 0.00
0.00 0.00 0.00 0.00 0.00 0.00 0.00 0.00 0.00 0.00 0.00 0.00 0.00 0.00 0.00 0.00 0.00 0.00 0.00 0.00 0.00 0.00 0.00 0.00 0.00 0.00 0.00 0.00 0.00 0.00 0.00 0.00 0.00 0.00 0.00 0.00 0.00 0.00 0.00 0.00 0.00 0.00 0.00 0.00 0.00 0.00 0.00 0.00 0.00 0.00 0.00 0.00 0.00 0.00 0.00 0.00 0.00 0.00 0.00 0.00 0.00 0.00 0.00
0.00 0.00 0.00 0.00 0.00 0.00 0.00 0.00 0.00 0.00 0.00 0.00 0.00 0.00 0.00 0.00 0.00 0.00 0.00 0.00 0.00 0.00 0.00 0.00 0.00 0.00 0.00 0.00 0.00 0.00 0.00 0.00 0.00 0.00 0.00 0.00 0.00 0.00 0.00 0.00 0.00 0.00 0.00 0.00 0.00 0.00 0.00 0.00 0.00 0.00 0.00 0.00 0.00 0.00 0.00 0.00 0.00 0.00 0.00 0.00 0.00 0.00 0.00
0.00 0.00 0.00 0.00 0.05 0.04 0.01 0.00 0.00 0.00 0.00 0.00 0.00 0.00 0.00 0.00 0.00 0.00 0.00 0.00 0.00 0.00 0.00 0.00 0.00 0.00 0.00 0.00 0.00 0.00 0.00 0.00 0.00 0.00 0.00 0.00 0.00 0.00 0.00 0.00 0.00 0.00 0.00 0.00 0.00 0.00 0.00 0.00 0.00 0.00 0.00 0.00 0.00 0.00 0.00 0.00 0.00 0.00 0.00 0.00 0.00 0.00 0.00
0.01 0.01 0.00 0.00 0.00 0.28 0.60 0.26 0.23 0.19 0.00 0.00 0.00 0.00 0.00 0.00 0.00 0.00 0.00 0.00 0.00 0.00 0.00 0.00 0.00 0.00 0.00 0.00 0.00 0.00 0.00 0.00 0.00 0.00 0.00 0.00 0.00 0.00 0.00 0.00 0.00 0.00 0.00 0.00 0.00 0.00 0.00 0.00 0.00 0.00 0.00 0.00 0.00 0.00 0.00 0.00 0.00 0.00 0.00 0.00 0.00 0.00 0.00
0.51 0.63 0.20 0.31 0.22 0.28 0.17 0.28 0.33 0.19 0.10 0.02 0.00 0.00 0.00 0.00 0.00 0.00 0.00 0.00 0.00 0.00 0.00 0.00 0.00 0.00 0.00 0.00 0.00 0.00 0.00 0.00 0.00 0.00 0.00 0.00 0.00 0.00 0.00 0.00 0.00 0.00 0.00 0.00 0.00 0.00 0.00 0.00 0.00 0.00 0.00 0.00 0.00 0.00 0.00 0.00 0.00 0.00 0.00 0.00 0.00 0.00 0.00
0.08 0.20 0.08 0.34 0.28 0.41 0.46 0.26 0.15 0.11 0.11 0.01 0.03 0.01 0.01 0.00 0.00 0.00 0.00 0.00 0.00 0.00 0.00 0.00 0.00 0.00 0.00 0.00 0.00 0.00 0.00 0.00 0.00 0.00 0.00 0.00 0.00 0.00 0.00 0.00 0.00 0.00 0.00 0.00 0.00 0.00 0.00 0.00 0.00 0.00 0.00 0.00 0.00 0.00 0.00 0.00 0.00 0.00 0.00 0.00 0.00 0.00 0.00
0.00 0.06 0.12 0.13 0.24 0.16 0.13 0.11 0.09 0.11 0.10 0.10 0.04 0.03 0.03 0.01 0.00 0.00 0.00 0.00 0.00 0.00 0.00 0.00 0.00 0.00 0.00 0.00 0.00 0.00 0.00 0.00 0.00 0.00 0.00 0.00 0.00 0.00 0.00 0.00 0.00 0.00 0.00 0.00 0.00 0.00 0.00 0.00 0.00 0.00 0.00 0.00 0.00 0.00 0.00 0.00 0.00 0.00 0.00 0.00 0.00 0.00 0.00
0.00 0.00 0.02 0.10 0.05 0.52 0.51 0.22 0.23 0.11 0.06 0.08 0.03 0.06 0.03 0.00 0.00 0.00 0.00 0.00 0.00 0.00 0.00 0.00 0.00 0.00 0.00 0.00 0.00 0.00 0.00 0.00 0.00 0.00 0.00 0.00 0.00 0.00 0.00 0.00 0.00 0.00 0.00 0.00 0.00 0.00 0.00 0.00 0.00 0.00 0.00 0.00 0.00 0.00 0.00 0.00 0.00 0.00 0.00 0.00 0.00 0.00 0.00
0.00 0.00 0.01 0.09 0.14 0.18 0.14 0.14 0.12 0.04 0.03 0.05 0.04 0.03 0.02 0.01 0.00 0.00 0.00 0.00 0.00 0.00 0.00 0.00 0.00 0.00 0.00 0.00 0.00 0.00 0.00 0.00 0.00 0.00 0.00 0.00 0.00 0.00 0.00 0.00 0.00 0.00 0.00 0.00 0.00 0.00 0.00 0.00 0.00 0.00 0.00 0.00 0.00 0.00 0.00 0.00 0.00 0.00 0.00 0.00 0.00 0.00 0.00
0.00 0.00 0.01 0.07 0.28 0.15 0.10 0.10 0.11 0.09 0.05 0.10 0.07 0.02 0.05 0.02 0.02 0.00 0.00 0.00 0.00 0.00 0.00 0.00 0.00 0.00 0.00 0.00 0.00 0.00 0.00 0.00 0.00 0.00 0.00 0.00 0.00 0.00 0.00 0.00 0.00 0.00 0.00 0.00 0.00 0.00 0.00 0.00 0.00 0.00 0.00 0.00 0.00 0.00 0.00 0.00 0.00 0.00 0.00 0.00 0.00 0.00 0.00
0.00 0.00 0.00 0.00 0.03 0.17 0.12 0.03 0.21 0.12 0.26 0.11 0.13 0.18 0.08 0.04 0.00 0.00 0.00 0.00 0.00 0.00 0.00 0.00 0.00 0.00 0.00 0.00 0.00 0.00 0.00 0.00 0.00 0.00 0.00 0.00 0.00 0.00 0.00 0.00 0.00 0.00 0.00 0.00 0.00 0.00 0.00 0.00 0.00 0.00 0.00 0.00 0.00 0.00 0.00 0.00 0.00 0.00 0.00 0.00 0.00 0.00 0.00
0.00 0.00 0.00 0.00 0.00 0.00 0.00 0.00 0.01 0.01 0.00 0.00 0.00 0.00 0.00 0.00 0.00 0.00 0.00 0.00 0.00 0.00 0.00 0.00 0.00 0.00 0.00 0.00 0.00 0.00 0.00 0.00 0.00 0.00 0.00 0.00 0.00 0.00 0.00 0.00 0.00 0.00 0.00 0.00 0.00 0.00 0.00 0.00 0.00 0.00 0.00 0.00 0.00 0.00 0.00 0.00 0.00 0.00 0.00 0.00 0.00 0.00 0.00
0.00 0.00 0.02 0.01 0.00 0.02 0.01 0.03 0.02 0.00 0.00 0.00 0.00 0.00 0.00 0.00 0.00 0.00 0.00 0.00 0.00 0.00 0.00 0.00 0.00 0.00 0.00 0.00 0.00 0.00 0.00 0.00 0.00 0.00 0.00 0.00 0.00 0.00 0.00 0.00 0.00 0.00 0.00 0.00 0.00 0.00 0.00 0.00 0.00 0.00 0.00 0.00 0.00 0.00 0.00 0.00 0.00 0.00 0.00 0.00 0.00 0.00 0.00
0.14 0.13 0.30 0.15 0.04 0.03 0.01 0.02 0.01 0.00 0.00 0.00 0.00 0.00 0.00 0.00 0.00 0.00 0.01 0.00 0.00 0.00 0.00 0.00 0.00 0.00 0.00 0.00 0.00 0.00 0.00 0.00 0.00 0.00 0.00 0.00 0.00 0.00 0.00 0.00 0.00 0.00 0.00 0.00 0.00 0.00 0.00 0.00 0.00 0.00 0.00 0.00 0.00 0.00 0.00 0.00 0.00 0.00 0.00 0.00 0.00 0.00 0.00
0.00 0.00 0.04 0.06 0.16 0.34 0.36 0.12 0.03 0.00 0.01 0.01 0.00 0.00 0.00 0.00 0.00 0.00 0.00 0.00 0.00 0.00 0.00 0.00 0.00 0.00 0.00 0.00 0.00 0.00 0.00 0.00 0.00 0.00 0.00 0.00 0.00 0.00 0.00 0.00 0.00 0.00 0.00 0.00 0.00 0.00 0.00 0.00 0.00 0.00 0.00 0.00 0.00 0.00 0.00 0.00 0.00 0.00 0.00 0.00 0.00 0.00 0.00
0.05 0.04 0.04 0.07 0.00 0.05 0.15 0.32 0.36 0.17 0.18 0.04 0.02 0.02 0.00 0.00 0.00 0.00 0.00 0.00 0.00 0.00 0.00 0.00 0.00 0.00 0.00 0.00 0.00 0.00 0.00 0.00 0.00 0.00 0.00 0.00 0.00 0.00 0.00 0.00 0.00 0.00 0.00 0.00 0.00 0.00 0.00 0.00 0.00 0.00 0.00 0.00 0.00 0.00 0.00 0.00 0.00 0.00 0.00 0.00 0.00 0.00 0.00
0.14 0.15 0.15 0.10 0.04 0.04 0.04 0.01 0.00 0.01 0.00 0.08 0.02 0.04 0.01 0.00 0.00 0.00 0.00 0.00 0.00 0.00 0.00 0.00 0.00 0.00 0.00 0.00 0.00 0.00 0.00 0.00 0.00 0.00 0.00 0.00 0.00 0.00 0.00 0.00 0.00 0.00 0.00 0.00 0.00 0.00 0.00 0.00 0.00 0.01 0.00 0.00 0.00 0.00 0.00 0.00 0.00 0.00 0.00 0.00 0.00 0.00 0.00
0.09 0.09 0.06 0.04 0.06 0.10 0.08 0.00 0.01 0.01 0.00 0.00 0.00 0.00 0.00 0.00 0.00 0.00 0.00 0.00 0.00 0.00 0.00 0.00 0.00 0.00 0.00 0.00 0.00 0.00 0.00 0.00 0.00 0.00 0.00 0.00 0.00 0.00 0.00 0.00 0.00 0.00 0.00 0.00 0.00 0.00 0.00 0.00 0.00 0.00 0.00 0.00 0.00 0.00 0.00 0.01 0.00 0.00 0.00 0.00 0.00 0.00 0.00
0.01 0.04 0.06 0.04 0.09 0.18 0.03 0.04 0.01 0.00 0.00 0.00 0.00 0.00 0.00 0.00 0.00 0.00 0.00 0.00 0.00 0.00 0.00 0.00 0.00 0.00 0.00 0.00 0.00 0.00 0.00 0.00 0.00 0.00 0.00 0.00 0.00 0.00 0.00 0.00 0.00 0.00 0.00 0.00 0.00 0.00 0.00 0.00 0.00 0.00 0.00 0.00 0.00 0.00 0.01 0.01 0.01 0.00 0.00 0.00 0.00 0.00 0.00
MSLP
1017.16 1017.20 1017.52 1017.76 1018.16 1018.24 1018.24 1018.32 1018.36 1018.36 1018.44 1018.48 1018.48 1018.56 1018.60 1018.68 1018.76 1018.88 1018.92 1019.04 1019.16 1019.32 1019.36 1019.48 1019.64 1019.72 1019.72 1019.72 1019.64 1019.60 1019.52 1019.44 1019.40 1019.52 1019.76 1019.72 1019.56 1019.60 1019.60 1019.60 1019.48 1019.32 1019.32 1019.48 1019.64 1019.88 1019.88 1020.04 1019.36 1018.72 1018.64 1018.68 1018.72 1018.76 1018.68 1018.72 1018.76 1018.80 1018.80 1018.80 1018.80 1018.76 1018.76
1017.28 1017.36 1017.64 1017.80 1018.00 1018.24 1018.28 1018.44 1018.40 1018.44 1018.48 1018.56 1018.64 1018.68 1018.72 1018.72 1018.76 1018.92 1019.04 1019.16 1019.28 1019.48 1019.56 1019.68 1019.76 1019.76 1019.76 1019.80 1019.80 1019.76 1019.72 1019.76 1019.76 1019.84 1019.88 1020.00 1019.92 1020.08 1019.92 1019.76 1019.64 1019.72 1019.64 1019.56 1019.60 1019.64 1019.80 1019.96 1019.72 1019.52 1019.24 1018.72 1018.68 1018.64 1018.64 1018.60 1018.56 1018.52 1018.52 1018.52 1018.44 1018.40 1018.40
1017.56 1017.64 1017.68 1017.76 1018.00 1018.20 1018.20 1018.40 1018.48 1018.48 1018.52 1018.56 1018.68 1018.80 1018.84 1018.92 1018.92 1018.96 1019.08 1019.20 1019.36 1019.48 1019.56 1019.68 1019.76 1019.84 1019.88 1019.92 1020.00 1020.00 1020.00 1020.00 1020.12 1020.08 1020.16 1020.24 1020.16 1020.12 1020.08 1020.16 1020.16 1020.20 1019.96 1019.88 1019.96 1020.04 1019.80 1019.64 1019.88 1019.72 1019.48 1019.56 1019.56 1018.88 1018.52 1018.48 1018.40 1018.32 1018.28 1018.28 1018.28 1018.24 1018.16
1017.48 1017.48 1017.60 1017.76 1018.00 1018.20 1018.20 1018.36 1018.44 1018.48 1018.60 1018.56 1018.72 1018.80 1018.92 1018.96 1019.00 1019.08 1019.20 1019.36 1019.48 1019.52 1019.60 1019.60 1019.72 1019.80 1019.92 1020.00 1020.08 1020.08 1020.16 1020.16 1020.24 1020.28 1020.36 1020.44 1020.40 1020.32 1020.32 1020.32 1020.44 1020.52 1020.44 1020.44 1020.52 1020.40 1020.40 1020.16 1020.04 1019.84 1019.72 1019.56 1019.64 1019.44 1018.76 1018.52 1018.44 1018.24 1018.12 1018.04 1018.04 1017.96 1017.92
1017.16 1017.32 1017.32 1017.44 1017.68 1017.80 1018.04 1018.20 1018.48 1018.56 1018.56 1018.64 1018.68 1018.72 1018.88 1019.00 1019.04 1019.12 1019.24 1019.36 1019.52 1019.64 1019.76 1019.84 1019.84 1019.88 1019.96 1020.04 1020.08 1020.16 1020.24 1020.36 1020.40 1020.40 1020.48 1020.48 1020.52 1020.52 1020.52 1020.52 1020.44 1020.44 1020.44 1020.52 1020.48 1020.44 1020.44 1020.40 1020.32 1020.16 1020.04 1019.68 1019.44 1019.20 1018.76 1018.68 1018.28 1018.12 1017.96 1017.84 1017.68 1017.64 1017.52
1017.08 1017.04 1017.16 1017.32 1017.52 1017.60 1017.84 1018.08 1018.32 1018.36 1018.52 1018.56 1018.60 1018.64 1018.80 1018.96 1019.00 1019.08 1019.16 1019.24 1019.44 1019.64 1019.84 1019.92 1020.00 1020.04 1020.04 1020.08 1020.16 1020.28 1020.36 1020.36 1020.44 1020.48 1020.48 1020.60 1020.64 1020.60 1020.60 1020.68 1020.64 1020.60 1020.56 1020.48 1020.48 1020.48 1020.40 1020.40 1020.36 1020.28 1019.88 1019.76 1019.84 1019.40 1018.96 1018.76 1018.60 1018.08 1017.80 1017.64 1017.44 1017.36 1017.28
1017.00 1017.04 1017.12 1017.16 1017.40 1017.48 1017.64 1017.72 1017.92 1018.04 1018.24 1018.28 1018.48 1018.52 1018.72 1018.88 1019.00 1019.04 1019.16 1019.36 1019.48 1019.64 1019.72 1019.84 1019.96 1020.04 1020.12 1020.16 1020.20 1020.32 1020.44 1020.48 1020.48 1020.52 1020.52 1020.56 1020.60 1020.64 1020.72 1020.64 1020.64 1020.72 1020.72 1020.68 1020.64 1020.60 1020.56 1020.56 1020.56 1020.48 1020.28 1020.08 1019.76 1019.48 1019.08 1018.80 1018.44 1018.48 1017.80 1017.52 1017.36 1017.24 1017.12
1016.84 1017.00 1017.04 1017.08 1017.24 1017.40 1017.64 1017.60 1017.76 1018.00 1018.00 1018.12 1018.24 1018.48 1018.72 1018.80 1018.92 1019.08 1019.20 1019.32 1019.52 1019.64 1019.72 1019.76 1019.96 1020.08 1020.12 1020.16 1020.28 1020.44 1020.52 1020.60 1020.56 1020.60 1020.60 1020.64 1020.64 1020.64 1020.68 1020.76 1020.72 1020.64 1020.60 1020.64 1020.72 1020.64 1020.56 1020.44 1020.40 1020.36 1020.28 1020.20 1019.80 1019.44 1019.28 1018.88 1018.64 1018.56 1018.20 1017.72 1017.40 1017.20 1017.04
1016.64 1016.84 1017.00 1017.20 1017.28 1017.28 1017.32 1017.40 1017.52 1017.76 1017.80 1017.88 1018.24 1018.48 1018.64 1018.68 1018.84 1018.96 1019.12 1019.28 1019.48 1019.60 1019.56 1019.64 1019.80 1019.92 1020.04 1020.12 1020.36 1020.44 1020.60 1020.72 1020.56 1020.56 1020.64 1020.64 1020.64 1020.72 1020.76 1020.84 1020.84 1020.72 1020.64 1020.60 1020.60 1020.60 1020.56 1020.48 1020.36 1020.32 1020.24 1020.16 1020.16 1019.80 1019.28 1019.16 1018.80 1018.44 1018.00 1017.96 1017.36 1017.00 1016.84
1016.48 1016.52 1016.60 1016.80 1016.96 1017.24 1017.32 1017.40 1017.40 1017.52 1017.76 1017.92 1018.00 1018.32 1018.44 1018.68 1018.72 1018.84 1019.04 1019.24 1019.36 1019.44 1019.52 1019.64 1019.76 1019.88 1019.96 1020.08 1020.24 1020.36 1020.52 1020.80 1020.72 1020.76 1020.80 1020.72 1020.76 1020.76 1020.76 1020.80 1020.92 1020.88 1020.80 1020.72 1020.68 1020.60 1020.52 1020.48 1020.40 1020.32 1020.24 1020.16 1020.16 1020.16 1019.76 1019.28 1018.76 1018.60 1017.96 1017.80 1017.96 1017.20 1016.96
1016.16 1016.28 1016.36 1016.52 1016.88 1017.12 1017.32 1017.40 1017.56 1017.68 1017.64 1017.72 1017.84 1018.12 1018.32 1018.52 1018.64 1018.76 1018.92 1019.16 1019.32 1019.32 1019.40 1019.64 1019.76 1019.84 1019.96 1020.08 1020.20 1020.36 1020.64 1020.68 1020.60 1020.72 1020.84 1020.84 1020.84 1020.88 1020.92 1020.88 1020.92 1020.88 1020.84 1020.80 1020.72 1020.64 1020.60 1020.52 1020.44 1020.32 1020.20 1020.04 1019.92 1020.00 1019.88 1019.76 1018.92 1018.36 1018.12 1017.80 1017.68 1017.48 1017.04
1016.12 1016.20 1016.28 1016.44 1016.76 1016.88 1016.96 1017.16 1017.24 1017.24 1017.52 1017.80 1017.84 1018.04 1018.28 1018.40 1018.56 1018.72 1018.84 1019.04 1019.16 1019.20 1019.44 1019.56 1019.72 1019.84 1019.92 1020.04 1020.20 1020.24 1020.60 1020.60 1020.52 1020.52 1020.72 1020.84 1020.88 1020.96 1021.04 1021.04 1021.08 1020.96 1020.88 1020.84 1020.76 1020.60 1020.48 1020.44 1020.32 1020.28 1020.12 1020.04 1019.96 1019.80 1019.76 1019.72 1019.48 1017.96 1017.80 1017.84 1017.60 1017.40 1017.32
1015.96 1016.04 1016.16 1016.36 1016.56 1016.60 1016.68 1016.92 1017.08 1017.28 1017.28 1017.56 1017.60 1017.76 1018.00 1018.16 1018.36 1018.56 1018.72 1018.76 1018.92 1019.08 1019.24 1019.48 1019.60 1019.80 1020.00 1020.12 1020.32 1020.36 1020.64 1020.64 1020.60 1020.68 1020.72 1020.84 1020.88 1020.92 1020.96 1021.00 1021.08 1021.08 1021.00 1020.96 1020.80 1020.64 1020.52 1020.36 1020.28 1020.20 1020.08 1020.00 1019.88 1019.76 1019.68 1019.60 1019.32 1018.36 1018.00 1018.08 1017.80 1017.52 1017.24
1015.76 1015.92 1016.08 1016.24 1016.32 1016.36 1016.52 1016.76 1016.88 1016.92 1017.32 1017.40 1017.60 1017.76 1017.88 1018.00 1018.20 1018.32 1018.44 1018.52 1018.68 1018.88 1019.04 1019.28 1019.64 1019.72 1019.84 1020.00 1020.32 1020.44 1020.64 1020.68 1020.64 1020.80 1020.84 1020.76 1020.88 1020.88 1020.88 1020.92 1020.92 1020.88 1020.92 1020.92 1020.84 1020.68 1020.52 1020.36 1020.24 1020.12 1020.04 1019.96 1019.88 1019.68 1019.64 1019.52 1019.36 1018.68 1017.80 1017.80 1017.64 1017.52 1017.28
1015.32 1015.56 1015.72 1015.88 1016.04 1016.08 1016.28 1016.44 1016.64 1017.04 1017.04 1017.28 1017.52 1017.56 1017.72 1017.92 1018.08 1018.20 1018.28 1018.48 1018.68 1018.84 1019.04 1019.28 1019.52 1019.56 1019.64 1019.84 1020.00 1020.36 1020.44 1020.52 1020.56 1020.72 1020.76 1020.60 1020.76 1020.80 1020.80 1020.76 1020.72 1020.68 1020.64 1020.68 1020.64 1020.60 1020.44 1020.32 1020.24 1020.16 1019.92 1019.88 1019.84 1019.72 1019.64 1019.68 1019.40 1019.24 1018.32 1017.72 1017.80 1017.48 1017.36
1015.28 1015.40 1015.44 1015.56 1015.68 1015.76 1015.96 1016.20 1016.56 1016.68 1016.88 1017.20 1017.48 1017.48 1017.60 1017.80 1018.00 1018.12 1018.20 1018.40 1018.64 1018.84 1019.08 1019.20 1019.40 1019.44 1019.64 1019.72 1019.80 1020.08 1020.32 1020.40 1020.44 1020.56 1020.60 1020.68 1020.72 1020.80 1020.68 1020.68 1020.60 1020.60 1020.56 1020.48 1020.40 1020.36 1020.32 1020.20 1020.08 1020.04 1019.92 1019.84 1019.76 1019.64 1019.56 1019.60 1019.60 1019.36 1018.92 1018.04 1017.80 1017.64 1017.36
1015.04 1015.32 1015.44 1015.32 1015.36 1015.48 1015.72 1016.04 1016.36 1016.52 1016.68 1017.00 1017.16 1017.44 1017.56 1017.68 1017.92 1018.04 1018.20 1018.48 1018.64 1018.88 1019.04 1019.20 1019.28 1019.36 1019.48 1019.64 1019.76 1019.88 1020.12 1020.28 1020.40 1020.52 1020.64 1020.68 1020.76 1020.76 1020.72 1020.72 1020.64 1020.64 1020.60 1020.52 1020.40 1020.32 1020.16 1020.08 1020.04 1019.92 1019.80 1019.68 1019.64 1019.52 1019.44 1019.40 1019.40 1019.48 1019.12 1018.76 1017.92 1017.96 1017.64
1014.48 1014.64 1014.88 1015.04 1015.12 1015.36 1015.68 1015.96 1016.24 1016.32 1016.60 1016.84 1017.00 1017.20 1017.52 1017.64 1017.76 1017.96 1018.12 1018.36 1018.64 1018.84 1018.96 1019.08 1019.16 1019.36 1019.52 1019.64 1019.68 1019.84 1020.00 1020.20 1020.32 1020.44 1020.56 1020.60 1020.64 1020.68 1020.68 1020.68 1020.64 1020.72 1020.68 1020.64 1020.48 1020.36 1020.24 1020.16 1020.00 1019.92 1019.80 1019.64 1019.56 1019.44 1019.36 1019.32 1019.24 1019.16 1019.08 1018.80 1018.20 1017.88 1017.80
1014.28 1014.20 1014.24 1014.52 1014.76 1015.04 1015.36 1015.64 1015.88 1016.16 1016.32 1016.56 1016.88 1017.04 1017.12 1017.44 1017.48 1017.76 1018.04 1018.32 1018.56 1018.80 1018.96 1019.04 1019.12 1019.24 1019.48 1019.76 1019.92 1020.04 1020.08 1020.12 1020.20 1020.32 1020.40 1020.44 1020.48 1020.52 1020.52 1020.48 1020.48 1020.52 1020.60 1020.60 1020.44 1020.36 1020.28 1020.16 1020.08 1019.96 1019.84 1019.64 1019.52 1019.44 1019.40 1019.32 1019.24 1019.12 1018.96 1018.68 1018.48 1017.92 1017.76
1013.92 1014.00 1014.12 1014.16 1014.40 1014.72 1014.96 1015.12 1015.36 1015.64 1016.00 1016.20 1016.52 1016.88 1017.16 1017.24 1017.56 1017.68 1018.08 1018.36 1018.52 1018.68 1018.88 1019.08 1019.24 1019.52 1019.76 1019.92 1020.04 1020.12 1020.20 1020.20 1020.28 1020.36 1020.36 1020.36 1020.36 1020.36 1020.32 1020.28 1020.24 1020.24 1020.28 1020.28 1020.24 1020.20 1020.08 1020.04 1019.96 1019.84 1019.76 1019.64 1019.52 1019.48 1019.40 1019.32 1019.24 1019.12 1018.96 1018.72 1018.32 1018.08 1017.80
1014.08 1014.20 1014.36 1014.60 1014.84 1014.88 1014.80 1014.84 1014.96 1015.20 1015.64 1016.00 1016.32 1016.64 1016.92 1017.04 1017.52 1017.80 1018.00 1018.24 1018.52 1018.76 1019.04 1019.40 1019.56 1019.68 1019.84 1019.96 1020.04 1020.12 1020.20 1020.28 1020.28 1020.36 1020.36 1020.36 1020.32 1020.24 1020.16 1020.08 1020.04 1019.96 1019.96 1019.92 1019.92 1019.88 1019.88 1019.80 1019.76 1019.68 1019.56 1019.52 1019.48 1019.44 1019.32 1019.20 1019.12 1019.04 1018.88 1018.68 1018.40 1018.04 1017.76
1013.64 1013.92 1014.12 1014.28 1014.60 1015.04 1015.56 1015.96 1015.88 1015.72 1015.64 1015.88 1016.28 1016.56 1016.76 1017.04 1017.48 1017.88 1018.28 1018.48 1018.84 1019.08 1019.20 1019.40 1019.60 1019.76 1019.88 1020.04 1020.20 1020.28 1020.32 1020.40 1020.40 1020.36 1020.32 1020.24 1020.16 1020.12 1020.04 1019.96 1019.84 1019.76 1019.68 1019.56 1019.52 1019.48 1019.44 1019.44 1019.44 1019.40 1019.28 1019.28 1019.24 1019.20 1019.08 1019.04 1018.92 1018.88 1018.72 1018.60 1018.24 1018.08 1017.80
1013.44 1013.56 1013.60 1013.72 1013.96 1014.32 1014.64 1015.12 1015.72 1016.24 1016.40 1016.20 1016.28 1016.68 1016.96 1017.24 1017.44 1017.76 1018.20 1018.64 1018.84 1019.04 1019.32 1019.56 1019.72 1019.88 1020.00 1020.08 1020.20 1020.32 1020.44 1020.48 1020.48 1020.44 1020.36 1020.20 1020.08 1019.96 1019.84 1019.72 1019.56 1019.44 1019.32 1019.28 1019.24 1019.24 1019.20 1019.16 1019.08 1019.04 1018.88 1018.92 1018.88 1018.88 1018.84 1018.76 1018.68 1018.60 1018.48 1018.24 1018.00 1017.92 1017.64
1013.16 1013.20 1013.28 1013.52 1013.92 1014.40 1014.68 1014.76 1014.92 1015.08 1015.52 1016.20 1016.52 1016.88 1017.20 1017.40 1017.80 1018.08 1018.24 1018.48 1018.76 1019.12 1019.40 1019.56 1019.68 1019.76 1019.80 1019.92 1020.04 1020.20 1020.36 1020.40 1020.44 1020.44 1020.36 1020.20 1020.00 1019.80 1019.64 1019.48 1019.36 1019.24 1019.08 1019.00 1018.96 1018.92 1018.88 1018.80 1018.72 1018.64 1018.56 1018.48 1018.44 1018.48 1018.44 1018.44 1018.32 1018.28 1018.20 1017.96 1017.68 1017.64 1017.36
1013.08 1013.08 1013.32 1013.48 1013.80 1014.20 1014.48 1014.72 1014.96 1015.28 1015.52 1015.84 1016.56 1016.80 1017.16 1017.64 1018.00 1018.20 1018.36 1018.56 1018.84 1019.12 1019.32 1019.44 1019.52 1019.56 1019.64 1019.72 1019.84 1020.00 1020.16 1020.24 1020.28 1020.28 1020.20 1020.08 1019.92 1019.72 1019.48 1019.28 1019.12 1019.04 1018.88 1018.76 1018.64 1018.52 1018.44 1018.40 1018.32 1018.20 1018.16 1018.08 1018.04 1018.00 1018.00 1018.00 1017.88 1017.88 1017.84 1017.72 1017.44 1017.20 1017.08
1013.08 1013.12 1013.24 1013.48 1013.80 1014.16 1014.44 1014.76 1015.08 1015.20 1015.28 1015.76 1016.40 1016.52 1017.24 1017.80 1018.16 1018.40 1018.44 1018.52 1018.76 1018.96 1019.12 1019.28 1019.32 1019.44 1019.52 1019.60 1019.64 1019.76 1019.88 1020.00 1020.08 1020.08 1020.00 1019.88 1019.72 1019.52 1019.32 1019.08 1018.88 1018.76 1018.60 1018.48 1018.32 1018.20 1018.12 1018.00 1017.88 1017.80 1017.68 1017.60 1017.52 1017.52 1017.52 1017.56 1017.60 1017.52 1017.40 1017.36 1017.16 1016.80 1016.64
1012.96 1013.04 1013.24 1013.52 1013.76 1014.00 1014.20 1014.36 1014.56 1014.92 1015.44 1016.08 1016.40 1016.80 1017.28 1017.84 1018.36 1018.48 1018.48 1018.48 1018.64 1018.84 1018.96 1019.12 1019.24 1019.36 1019.44 1019.44 1019.44 1019.52 1019.64 1019.72 1019.80 1019.84 1019.80 1019.68 1019.48 1019.24 1019.08 1018.88 1018.68 1018.48 1018.36 1018.28 1018.16 1018.08 1017.96 1017.80 1017.64 1017.52 1017.32 1017.20 1017.04 1016.96 1016.96 1016.96 1017.00 1017.00 1017.04 1016.84 1016.68 1016.36 1016.04
1012.84 1013.04 1013.24 1013.40 1013.64 1013.80 1014.04 1014.60 1014.92 1015.20 1015.52 1016.00 1016.44 1016.72 1017.16 1017.84 1018.28 1018.48 1018.52 1018.52 1018.56 1018.76 1019.00 1019.20 1019.32 1019.40 1019.40 1019.40 1019.36 1019.40 1019.40 1019.52 1019.60 1019.60 1019.52 1019.36 1019.20 1019.00 1018.88 1018.68 1018.48 1018.24 1018.08 1018.00 1017.92 1017.88 1017.76 1017.64 1017.48 1017.24 1017.08 1016.84 1016.72 1016.56 1016.48 1016.44 1016.48 1016.40 1016.36 1016.28 1016.12 1015.84 1015.72
1012.72 1013.00 1013.20 1013.40 1013.56 1013.76 1014.08 1014.36 1014.88 1015.40 1015.72 1016.28 1016.76 1017.24 1017.68 1017.92 1018.04 1018.28 1018.40 1018.48 1018.60 1018.84 1019.12 1019.32 1019.36 1019.40 1019.40 1019.32 1019.36 1019.32 1019.36 1019.40 1019.40 1019.32 1019.20 1019.08 1018.88 1018.76 1018.60 1018.44 1018.20 1017.96 1017.80 1017.72 1017.64 1017.64 1017.56 1017.40 1017.20 1017.00 1016.76 1016.48 1016.32 1016.16 1015.96 1015.92 1015.92 1015.84 1015.72 1015.60 1015.48 1015.36 1015.24
1012.56 1012.84 1013.04 1013.20 1013.44 1013.72 1014.08 1014.72 1015.12 1015.24 1015.52 1016.24 1016.68 1017.08 1017.36 1017.52 1017.80 1018.04 1018.28 1018.48 1018.60 1018.84 1019.08 1019.20 1019.28 1019.24 1019.24 1019.24 1019.24 1019.28 1019.28 1019.28 1019.24 1019.16 1019.00 1018.84 1018.68 1018.48 1018.28 1018.04 1017.80 1017.60 1017.48 1017.40 1017.36 1017.36 1017.32 1017.28 1017.00 1016.80 1016.56 1016.24 1016.00 1015.80 1015.52 1015.60 1015.48 1015.40 1015.28 1015.16 1015.08 1015.00 1014.92
1012.32 1012.60 1012.84 1013.00 1013.32 1013.76 1014.08 1014.44 1014.84 1014.84 1015.20 1016.08 1016.52 1016.92 1017.24 1017.52 1017.72 1017.80 1018.04 1018.40 1018.60 1018.76 1018.96 1019.04 1019.08 1019.12 1019.12 1019.12 1019.16 1019.20 1019.20 1019.20 1019.12 1019.00 1018.76 1018.64 1018.44 1018.16 1017.84 1017.60 1017.36 1017.16 1017.00 1016.92 1016.92 1017.00 1017.00 1017.00 1016.72 1016.48 1016.32 1016.04 1015.64 1015.44 1015.16 1015.32 1015.12 1014.88 1014.88 1014.72 1014.60 1014.52 1014.44
1012.04 1012.44 1012.92 1013.52 1014.12 1014.64 1014.76 1014.52 1014.56 1014.76 1015.28 1015.88 1016.48 1017.04 1017.24 1017.32 1017.68 1017.96 1018.16 1018.36 1018.56 1018.68 1018.76 1018.80 1018.88 1018.96 1018.96 1018.96 1018.96 1019.00 1019.08 1019.12 1019.04 1018.84 1018.60 1018.24 1018.04 1017.72 1017.36 1017.16 1017.00 1016.88 1016.76 1016.56 1016.64 1016.68 1016.68 1016.72 1016.40 1016.20 1016.04 1015.80 1015.32 1015.00 1014.92 1015.04 1014.76 1014.68 1014.56 1014.40 1014.20 1014.16 1013.92
1012.08 1012.40 1012.92 1013.48 1013.84 1014.28 1015.32 1016.04 1015.88 1015.80 1016.00 1016.28 1016.68 1016.96 1017.08 1017.28 1017.48 1017.84 1018.24 1018.32 1018.48 1018.56 1018.56 1018.64 1018.72 1018.76 1018.80 1018.76 1018.68 1018.76 1018.84 1018.96 1018.80 1018.52 1018.32 1018.04 1017.64 1017.28 1017.04 1016.76 1016.56 1016.48 1016.36 1016.32 1016.28 1016.28 1016.28 1016.28 1016.08 1015.76 1015.64 1015.36 1015.00 1014.48 1014.64 1014.60 1014.40 1014.40 1014.12 1014.00 1013.72 1013.56 1013.28
1012.08 1012.48 1012.60 1012.92 1013.32 1013.84 1014.48 1015.24 1016.04 1016.52 1016.76 1016.92 1017.00 1017.20 1017.36 1017.48 1017.64 1017.96 1018.28 1018.40 1018.48 1018.64 1018.64 1018.48 1018.48 1018.56 1018.52 1018.48 1018.44 1018.56 1018.68 1018.76 1018.60 1018.36 1018.04 1017.76 1017.40 1016.96 1016.56 1016.28 1016.00 1015.92 1015.84 1015.80 1015.76 1015.68 1015.64 1015.56 1015.52 1015.24 1014.92 1014.68 1014.36 1014.08 1014.28 1014.08 1013.92 1014.08 1013.80 1013.60 1013.44 1013.20 1012.92
1012.24 1012.72 1013.24 1013.52 1013.80 1014.32 1014.92 1015.32 1015.76 1016.20 1016.88 1017.08 1017.04 1017.32 1017.60 1017.72 1017.68 1017.80 1018.24 1018.48 1018.44 1018.36 1018.52 1018.52 1018.44 1018.32 1018.24 1018.20 1018.28 1018.40 1018.56 1018.48 1018.36 1018.08 1017.68 1017.36 1016.92 1016.48 1016.12 1015.80 1015.60 1015.48 1015.48 1015.40 1015.32 1015.24 1015.12 1015.04 1014.92 1014.68 1014.12 1014.04 1013.84 1013.84 1013.72 1013.48 1013.36 1013.44 1013.28 1013.12 1012.96 1012.72 1012.52
1012.24 1012.52 1012.92 1013.44 1014.32 1015.04 1015.40 1015.44 1016.24 1016.84 1016.96 1017.12 1017.04 1017.16 1017.32 1017.44 1017.44 1017.52 1017.72 1017.96 1018.36 1018.28 1018.24 1018.32 1018.24 1018.16 1018.08 1018.12 1018.20 1018.32 1018.32 1018.24 1018.04 1017.84 1017.40 1016.84 1016.48 1016.00 1015.68 1015.48 1015.20 1015.12 1015.08 1014.96 1014.84 1014.68 1014.52 1014.36 1014.20 1013.84 1013.60 1013.48 1013.40 1013.32 1013.28 1013.04 1012.88 1012.84 1012.80 1012.68 1012.52 1012.20 1012.04
1012.32 1012.76 1013.16 1013.68 1014.08 1014.72 1015.52 1015.92 1016.52 1016.84 1016.88 1016.76 1016.84 1016.80 1017.12 1017.40 1017.40 1017.28 1017.32 1017.36 1017.44 1017.72 1018.04 1018.16 1018.00 1017.96 1018.00 1018.00 1018.08 1018.12 1018.04 1017.88 1017.68 1017.32 1016.92 1016.44 1015.92 1015.64 1015.28 1015.04 1014.88 1014.76 1014.60 1014.40 1014.20 1013.96 1013.72 1013.56 1013.28 1013.00 1012.88 1012.72 1012.68 1012.68 1012.64 1012.48 1012.40 1012.20 1012.12 1011.96 1011.84 1011.60 1011.36
Thickness
5602 5601 5600 5599 5598 5597 5596 5596 5596 5596 5597 5597 5597 5598 5598 5599 5598 5598 5598 5597 5597 5597 5597 5597 5597 5597 5598 5600 5601 5602 5604 5605 5606 5605 5605 5607 5608 5608 5609 5610 5612 5614 5615 5615 5615 5616 5616 5617 5624 5629 5632 5634 5636 5636 5638 5639 5640 5641 5642 5643 5644 5645 5646
5597 5597 5596 5596 5595 5594 5594 5593 5593 5594 5594 5594 5594 5594 5595 5595 5595 5594 5594 5593 5593 5592 5593 5593 5593 5594 5595 5595 5597 5598 5599 5600 5600 5601 5600 5602 5603 5603 5605 5607 5607 5609 5610 5611 5612 5613 5614 5615 5616 5621 5625 5628 5631 5633 5635 5636 5637 5639 5640 5641 5642 5644 5645
5593 5593 5593 5593 5591 5591 5591 5591 5590 5591 5591 5591 5591 5591 5591 5591 5591 5591 5591 5590 5589 5589 5590 5590 5590 5591 5591 5591 5593 5593 5594 5595 5595 5596 5596 5596 5598 5599 5600 5602 5602 5603 5604 5606 5606 5607 5609 5612 5613 5615 5618 5620 5623 5627 5631 5633 5634 5636 5638 5639 5641 5642 5643
5590 5590 5590 5590 5589 5588 5589 5588 5587 5587 5588 5588 5588 5588 5588 5588 5588 5588 5587 5586 5586 5586 5586 5587 5587 5587 5588 5588 5589 5590 5590 5590 5590 5591 5591 5591 5592 5594 5595 5597 5597 5598 5599 5600 5600 5601 5603 5606 5609 5611 5613 5615 5617 5621 5626 5629 5631 5633 5636 5637 5639 5640 5641
5589 5589 5589 5588 5588 5588 5587 5586 5585 5584 5585 5585 5586 5586 5585 5585 5585 5585 5585 5584 5583 5583 5583 5583 5583 5584 5585 5585 5585 5586 5587 5587 5587 5587 5587 5587 5588 5589 5591 5592 5593 5594 5595 5595 5596 5597 5598 5600 5603 5605 5608 5610 5612 5617 5621 5623 5627 5630 5634 5635 5637 5638 5639
5588 5588 5588 5587 5587 5586 5585 5584 5583 5583 5583 5583 5583 5583 5583 5582 5583 5582 5582 5582 5581 5580 5579 5580 5580 5580 5581 5582 5582 5582 5583 5583 5584 5584 5584 5584 5585 5585 5586 5587 5589 5590 5591 5592 5592 5594 5594 5596 5598 5600 5603 5605 5607 5612 5616 5618 5622 5626 5630 5633 5634 5635 5636
5586 5586 5586 5586 5586 5585 5584 5584 5583 5582 5581 5581 5581 5581 5580 5580 5580 5580 5579 5579 5578 5578 5577 5577 5577 5577 5578 5578 5578 5578 5579 5579 5580 5580 5581 5582 5582 5582 5583 5584 5585 5585 5586 5588 5589 5589 5591 5591 5592 5594 5597 5600 5603 5607 5611 5614 5616 5618 5623 5628 5629 5631 5633
5585 5584 5585 5584 5584 5584 5583 5583 5582 5581 5581 5581 5580 5579 5578 5578 5577 5577 5577 5576 5575 5575 5575 5575 5574 5574 5574 5574 5574 5574 5574 5575 5576 5577 5577 5578 5578 5578 5579 5579 5580 5582 5583 5584 5585 5585 5587 5588 5589 5590 5592 5594 5597 5602 5605 5608 5611 5613 5617 5620 5623 5626 5628
5584 5583 5582 5582 5582 5582 5582 5582 5582 5580 5580 5579 5578 5577 5577 5576 5576 5575 5574 5573 5573 5572 5572 5572 5571 5571 5571 5570 5570 5570 5570 5570 5572 5573 5573 5574 5574 5574 5575 5575 5576 5577 5578 5580 5581 5582 5583 5584 5585 5586 5587 5588 5591 5595 5599 5602 5606 5610 5613 5615 5617 5620 5623
5583 5582 5582 5581 5581 5580 5579 5580 5580 5579 5579 5578 5577 5576 5575 5574 5574 5574 5573 5571 5571 5570 5570 5569 5569 5568 5568 5567 5567 5567 5566 5566 5567 5567 5568 5569 5570 5570 5570 5571 5571 5572 5573 5574 5576 5577 5578 5579 5580 5582 5583 5585 5586 5588 5592 5596 5601 5606 5609 5610 5611 5614 5617
5583 5582 5582 5581 5580 5579 5577 5577 5578 5578 5577 5577 5576 5575 5573 5572 5572 5572 5571 5570 5569 5569 5568 5568 5566 5566 5565 5564 5564 5564 5563 5563 5563 5564 5564 5564 5565 5565 5565 5566 5566 5567 5568 5569 5571 5572 5573 5574 5576 5577 5578 5581 5582 5584 5586 5590 5596 5602 5605 5605 5607 5609 5612
5582 5581 5581 5580 5578 5578 5577 5576 5576 5576 5576 5575 5575 5574 5572 5571 5570 5569 5569 5568 5567 5567 5565 5565 5564 5563 5563 5562 5561 5561 5560 5560 5561 5561 5560 5560 5561 5561 5560 5561 5561 5562 5563 5564 5566 5568 5568 5570 5571 5572 5574 5576 5577 5579 5581 5583 5590 5599 5601 5600 5602 5604 5606
5580 5580 5579 5578 5576 5577 5576 5575 5575 5574 5574 5573 5573 5572 5571 5570 5569 5568 5567 5566 5565 5565 5563 5562 5561 5560 5560 5559 5558 5557 5557 5556 5557 5557 5556 5556 5557 5557 5556 5557 5557 5557 5558 5559 5561 5562 5564 5566 5568 5569 5570 5571 5572 5574 5576 5578 5583 5593 5597 5595 5597 5600 5601
5579 5578 5578 5577 5576 5576 5574 5573 5572 5572 5571 5570 5570 5570 5568 5568 5567 5566 5565 5565 5563 5562 5561 5560 5558 5558 5557 5555 5555 5554 5553 5553 5553 5552 5552 5553 5553 5553 5553 5553 5553 5554 5554 5555 5555 5557 5559 5561 5563 5564 5565 5566 5568 5569 5571 5573 5576 5584 5591 5592 5592 5595 5596
5579 5578 5577 5577 5576 5575 5574 5573 5571 5570 5569 5568 5567 5566 5565 5564 5564 5563 5563 5562 5561 5559 5558 5557 5556 5555 5554 5553 5552 5551 5549 5549 5548 5548 5548 5548 5548 5549 5549 5550 5550 5551 5551 5552 5552 5553 5554 5556 5557 5559 5560 5561 5562 5563 5564 5566 5568 5574 5583 5586 5587 5588 5592
5577 5576 5576 5576 5575 5575 5574 5572 5570 5569 5568 5566 5564 5564 5563 5561 5560 5560 5559 5558 5557 5556 5555 5554 5553 5553 5552 5551 5550 5548 5547 5546 5545 5544 5543 5543 5543 5543 5544 5544 5545 5546 5547 5548 5548 5549 5550 5552 5553 5554 5555 5556 5557 5559 5559 5560 5561 5564 5572 5579 5580 5581 5584
5575 5574 5573 5574 5574 5573 5571 5569 5568 5567 5566 5564 5563 5561 5560 5559 5558 5556 5555 5554 5552 5552 5551 5551 5550 5550 5549 5548 5547 5546 5544 5543 5541 5540 5539 5538 5537 5538 5538 5538 5539 5540 5541 5542 5543 5544 5545 5546 5547 5548 5550 5550 5552 5553 5554 5555 5556 5557 5562 5569 5574 5574 5576
5574 5574 5573 5572 5572 5571 5569 5567 5565 5564 5563 5561 5560 5559 5558 5556 5555 5554 5552 5550 5548 5547 5547 5547 5546 5546 5545 5544 5543 5542 5541 5540 5538 5536 5535 5534 5533 5533 5533 5534 5534 5534 5534 5535 5536 5537 5538 5539 5540 5542 5543 5544 5545 5547 5548 5549 5550 5552 5554 5560 5565 5568 5569
5572 5573 5573 5572 5570 5568 5567 5565 5563 5562 5560 5559 5557 5555 5554 5553 5552 5550 5548 5546 5544 5543 5542 5542 5541 5541 5539 5538 5537 5536 5536 5535 5534 5533 5532 5531 5530 5530 5530 5530 5530 5530 5529 5530 5530 5531 5532 5532 5534 5535 5536 5538 5539 5539 5541 5542 5543 5544 5547 5551 5557 5561 5563
5569 5570 5569 5568 5568 5567 5566 5565 5563 5561 5558 5556 5553 5551 5550 5549 5547 5546 5543 5541 5540 5538 5537 5536 5534 5534 5532 5532 5531 5530 5530 5530 5529 5529 5528 5528 5527 5527 5527 5527 5527 5527 5526 5526 5527 5527 5527 5528 5528 5530 5530 5531 5532 5533 5534 5535 5535 5537 5539 5543 5547 5552 5555
5565 5565 5564 5563 5562 5562 5561 5559 5557 5556 5554 5551 5549 5546 5545 5544 5542 5539 5537 5536 5535 5533 5531 5529 5527 5526 5526 5525 5524 5524 5524 5523 5523 5524 5524 5524 5523 5523 5524 5524 5524 5524 5524 5524 5524 5524 5525 5525 5525 5526 5526 5526 5527 5527 5529 5529 5529 5531 5532 5535 5539 5542 5546
5562 5561 5559 5558 5557 5556 5553 5549 5546 5544 5543 5543 5542 5540 5539 5538 5536 5533 5531 5529 5527 5526 5524 5522 5521 5520 5519 5518 5517 5517 5516 5517 5517 5517 5518 5519 5519 5520 5520 5520 5520 5521 5521 5521 5522 5521 5521 5522 5522 5523 5523 5523 5523 5523 5524 5525 5525 5525 5526 5528 5532 5534 5538
5559 5557 5556 5556 5554 5552 5549 5545 5541 5537 5535 5534 5533 5532 5531 5530 5529 5527 5525 5523 5520 5518 5517 5516 5515 5514 5513 5511 5511 5510 5510 5510 5510 5511 5512 5513 5515 5515 5515 5516 5516 5517 5518 5518 5518 5518 5518 5518 5518 5519 5519 5520 5520 5520 5520 5521 5521 5521 5521 5523 5526 5527 5530
5554 5554 5553 5552 5550 5546 5542 5540 5539 5537 5534 5530 5526 5525 5524 5522 5521 5520 5518 5517 5515 5512 5511 5510 5509 5508 5507 5507 5506 5505 5504 5504 5504 5504 5505 5507 5509 5510 5511 5511 5512 5512 5513 5513 5514 5514 5514 5514 5515 5515 5516 5516 5516 5516 5516 5516 5517 5517 5516 5518 5521 5521 5524
5547 5547 5546 5545 5543 5541 5537 5534 5532 5531 5529 5526 5521 5520 5518 5515 5513 5511 5510 5509 5508 5506 5505 5504 5503 5503 5502 5502 5501 5500 5499 5499 5499 5499 5499 5501 5502 5504 5506 5507 5508 5508 5509 5509 5510 5510 5510 5511 5511 5511 5512 5512 5512 5513 5512 5512 5513 5512 5512 5513 5515 5517 5519
5540 5540 5538 5537 5536 5535 5532 5529 5526 5524 5524 5521 5517 5515 5512 5508 5506 5504 5503 5502 5502 5501 5500 5498 5498 5497 5497 5497 5496 5496 5495 5494 5494 5493 5493 5495 5496 5498 5500 5502 5503 5504 5504 5504 5505 5505 5506 5507 5507 5507 5508 5509 5509 5509 5508 5508 5507 5507 5508 5508 5511 5514 5514
5532 5532 5531 5530 5529 5528 5526 5524 5521 5519 5518 5514 5511 5509 5506 5502 5498 5497 5497 5496 5496 5495 5493 5492 5492 5491 5491 5491 5491 5490 5491 5489 5489 5488 5488 5489 5491 5493 5495 5496 5498 5499 5499 5499 5499 5499 5500 5501 5501 5503 5503 5504 5505 5505 5504 5503 5502 5501 5502 5502 5505 5510 5510
5525 5524 5524 5522 5522 5521 5520 5517 5514 5513 5510 5507 5505 5503 5500 5496 5492 5489 5489 5490 5489 5488 5486 5485 5485 5484 5484 5484 5485 5485 5485 5485 5484 5483 5483 5484 5486 5488 5489 5490 5492 5493 5494 5494 5493 5493 5493 5493 5495 5497 5498 5499 5499 5499 5499 5498 5496 5496 5496 5496 5499 5503 5504
5519 5518 5516 5515 5514 5513 5511 5509 5507 5506 5504 5500 5497 5494 5492 5489 5486 5483 5482 5482 5481 5480 5479 5478 5478 5478 5478 5478 5478 5478 5478 5478 5478 5478 5478 5480 5481 5483 5483 5485 5487 5488 5488 5488 5487 5486 5485 5486 5487 5489 5491 5493 5494 5494 5494 5492 5490 5490 5490 5490 5492 5493 5495
5513 5512 5510 5510 5508 5506 5504 5501 5499 5499 5497 5492 5489 5487 5485 5482 5480 5478 5476 5475 5474 5473 5472 5471 5471 5472 5472 5472 5472 5472 5472 5472 5471 5472 5473 5474 5476 5478 5479 5479 5481 5482 5483 5483 5481 5480 5478 5477 5480 5481 5483 5485 5486 5487 5488 5485 5483 5484 5483 5483 5484 5484 5486
5508 5506 5505 5503 5501 5498 5497 5495 5494 5494 5492 5486 5482 5480 5479 5477 5475 5472 5470 5469 5467 5466 5466 5465 5465 5465 5465 5465 5465 5465 5465 5464 5465 5466 5467 5469 5471 5472 5474 5476 5475 5476 5477 5476 5474 5473 5471 5470 5471 5473 5473 5475 5478 5481 5480 5477 5476 5476 5475 5475 5476 5476 5478
5502 5500 5497 5494 5490 5487 5485 5486 5487 5487 5484 5480 5475 5473 5471 5470 5468 5466 5464 5462 5461 5460 5459 5459 5459 5459 5459 5459 5459 5458 5457 5457 5458 5460 5461 5464 5467 5468 5470 5470 5470 5469 5470 5469 5467 5465 5463 5461 5462 5464 5464 5465 5470 5473 5471 5468 5468 5467 5466 5466 5467 5467 5470
5495 5493 5490 5487 5485 5482 5477 5474 5474 5474 5472 5470 5467 5465 5464 5464 5462 5459 5457 5456 5455 5454 5453 5453 5453 5453 5453 5453 5453 5452 5451 5451 5452 5455 5456 5459 5462 5464 5465 5465 5464 5463 5462 5461 5460 5458 5456 5453 5453 5455 5456 5456 5461 5464 5461 5459 5459 5457 5456 5458 5459 5459 5463
5486 5485 5482 5480 5481 5478 5472 5467 5465 5463 5461 5460 5459 5458 5457 5456 5455 5453 5451 5450 5449 5448 5447 5448 5447 5447 5448 5448 5448 5447 5446 5446 5447 5449 5452 5454 5455 5457 5458 5458 5458 5458 5455 5454 5453 5451 5450 5448 5446 5448 5449 5450 5452 5452 5450 5450 5450 5448 5448 5450 5451 5452 5456
5477 5475 5473 5471 5469 5466 5463 5461 5458 5455 5454 5453 5453 5452 5450 5449 5449 5448 5446 5444 5443 5443 5442 5442 5442 5442 5442 5443 5442 5441 5440 5439 5440 5442 5445 5448 5449 5451 5452 5452 5452 5451 5448 5447 5446 5444 5443 5442 5440 5441 5443 5443 5443 5442 5440 5441 5442 5440 5441 5443 5444 5447 5449
5469 5468 5466 5464 5460 5457 5455 5453 5450 5447 5447 5448 5448 5448 5446 5445 5444 5444 5442 5440 5439 5438 5437 5437 5438 5437 5437 5437 5436 5434 5433 5433 5434 5435 5438 5442 5443 5444 5446 5445 5444 5443 5440 5439 5438 5437 5436 5436 5435 5437 5437 5436 5435 5434 5432 5433 5434 5433 5435 5436 5437 5440 5443
5462 5460 5459 5458 5455 5451 5448 5446 5444 5442 5442 5443 5445 5445 5443 5441 5441 5440 5439 5438 5436 5435 5434 5433 5433 5433 5432 5431 5430 5428 5428 5428 5428 5430 5433 5436 5437 5439 5439 5438 5436 5435 5433 5432 5431 5431 5431 5431 5431 5432 5433 5431 5429 5428 5426 5426 5427 5426 5428 5429 5432 5435 5438